This is the latest recevied weather packets stored in our database for station/object KE3HG-2. If no packets are shown the sender has not sent any weather packets the latest 10 day(s).
| Time | Temp. | Humidity | Pressure | Rain* | Wind** | Luminosity | Snow |
|---|---|---|---|---|---|---|---|
| 1777756139 | 13.89° C | 26% | 757.5 hPa | 0 mm | - | - | - |
| 1777755539 | 13.89° C | 25% | 757.5 hPa | 0 mm | - | - | - |
| 1777754571 | 14.44° C | 27% | 757.5 hPa | 0 mm | - | - | - |
| 1777753971 | 13.89° C | 29% | 757.5 hPa | 0 mm | - | - | - |
| 1777753370 | 13.89° C | 28% | 757.5 hPa | 0 mm | - | - | - |
| 1777752391 | 14.44° C | 24% | 757.5 hPa | 0 mm | - | - | - |
| 1777751792 | 15° C | 25% | 757.5 hPa | 0 mm | - | - | - |
| 1777751192 | 15° C | 27% | 757.5 hPa | 0 mm | - | - | - |
| 1777750220 | 14.44° C | 27% | 757.5 hPa | 0 mm | - | - | - |
| 1777749620 | 14.44° C | 35% | 757.5 hPa | 0 mm | - | - | - |
| 1777749021 | 14.44° C | 30% | 757.5 hPa | 0 mm | - | - | - |
| 1777748022 | 15° C | 26% | 757.5 hPa | 0 mm | - | - | - |
| 1777747422 | 14.44° C | 27% | 757.5 hPa | 0 mm | - | - | - |
| 1777746822 | 14.44° C | 30% | 757.5 hPa | 0 mm | - | - | - |
| 1777745813 | 13.89° C | 34% | 757.5 hPa | 0 mm | - | - | - |
| 1777745213 | 13.89° C | 32% | 757.5 hPa | 0 mm | - | - | - |
| 1777744613 | 13.89° C | 32% | 757.5 hPa | 0 mm | - | - | - |
| 1777743610 | 13.89° C | 32% | 757.5 hPa | 0 mm | - | - | - |
| 1777743010 | 13.89° C | 32% | 757.5 hPa | 0 mm | - | - | - |
| 1777742410 | 13.33° C | 32% | 757.5 hPa | 0 mm | - | - | - |
| 1777741417 | 13.33° C | 34% | 757.5 hPa | 0 mm | - | - | - |
| 1777740817 | 13.89° C | 34% | 757.5 hPa | 0 mm | - | - | - |
| 1777740217 | 13.33° C | 37% | 757.5 hPa | 0 mm | - | - | - |
| 1777739226 | 12.78° C | 36% | 757.5 hPa | 0 mm | - | - | - |
| 1777738626 | 12.78° C | 36% | 757.5 hPa | 0 mm | - | - | - |
* Rain latest hour (hover to see other rain measurements)
** Current wind speed in m/s (hover to see current wind gust speed)